Weather History for HESN - January, 2013

Change the Weather History Date:

Friday, January 18, 2013

  Actual Average Record
Temperature  
Mean Temperature 74 °F -  
Max Temperature 88 °F 73 °F 88 °F (2013)
Min Temperature 61 °F 51 °F 44 °F (2006)
Cooling Degree Days 10    
Growing Degree Days 24 (Base 50)    
Moisture  
Dew Point 46 °F    
Average Humidity 36    
Maximum Humidity 49    
Minimum Humidity 25    
Precipitation  
Precipitation 0.00 in 0.00 in - ()
Sea Level Pressure  
Sea Level Pressure 29.95 in    
Wind  
Wind Speed 5 mph ()    
Max Wind Speed 12 mph    
Max Gust Speed -    
Visibility 6.0 miles    
Events      
Averages and records for this station are not official NWS values.
T = Trace of Precipitation, MM = Missing Value Source: Averaged Metar Reports

Daily Weather History Graph

Daily Weather History Graph

Search for Another Location

Airport or City:

Trip Planner

Search our weather history database for the weather conditions in past years. The results will help you decide how hot, cold, wet, or windy it might be!

Date:

Astronomy

Jan. 18, 2013 Rise Set
Actual Time 6:33 AM EET 5:25 PM EET
Civil Twilight 6:09 AM EET 5:49 PM EET
Nautical Twilight 5:41 AM EET 6:17 PM EET
Astronomical Twilight 5:14 AM EET 6:44 PM EET
Moon 10:53 AM EET (1/18) 11:59 PM EET (1/18)
Length of Visible Light 11h 40m
Length of Day
10h 51m
Waxing Crescent, 44% of the Moon is Illuminated
Jan 18
Waxing Crescent
Jan 19
First Quarter
Jan 27
Full
Feb 3
Last Quarter
Feb 10
New

Hourly Weather History & Observations

Time (EET) Temp. Heat Index Dew Point Humidity Pressure Visibility Wind Dir Wind Speed Gust Speed Precip Events Conditions
12:00 AM 68.0 °F - 46.4 °F 46% 29.98 in - North 6.9 mph - N/A   Clear
1:00 AM 66.2 °F - 46.4 °F 49% 29.95 in - North 5.8 mph - N/A   Clear
2:00 AM 66 °F - 40 °F 26% 29.98 in 6 mi North 6.9 mph - -  
2:00 AM 66.2 °F - 39.2 °F 37% 29.98 in - North 6.9 mph - N/A   Clear
3:00 AM 64.4 °F - 39.2 °F 40% 29.98 in - North 6.9 mph - N/A   Clear
4:00 AM 62.6 °F - 41.0 °F 45% 29.98 in - North 4.6 mph - N/A   Clear
5:00 AM 64.4 °F - 32.0 °F 30% 29.95 in - North 8.1 mph - N/A   Clear
7:00 AM 62.6 °F - 32.0 °F 32% 29.98 in - Calm Calm - N/A   Clear
8:00 AM 65 °F - 44 °F 36% 29.97 in 6 mi East 11.5 mph - -   Partly Cloudy
8:00 AM 66.2 °F - 44.6 °F 46% 29.98 in - East 11.5 mph - N/A   Clear
9:00 AM 71.6 °F - 50.0 °F 46% 29.98 in - East 5.8 mph - N/A   Clear
10:00 AM 75.2 °F - 50.0 °F 41% 29.98 in - SE 3.5 mph - N/A   Clear
11:00 AM 78.8 °F - 51.8 °F 39% 29.98 in - West 3.5 mph - N/A   Clear
12:00 PM 82.4 °F 81.4 °F 53.6 °F 37% 29.92 in - ESE 5.8 mph - N/A   Clear
1:00 PM 86.0 °F 84.5 °F 55.4 °F 35% 29.89 in - ESE 3.5 mph - N/A   Clear
2:00 PM 87 °F - 56 °F 25% 29.86 in 6 mi SW 5.8 mph - -  
2:00 PM 87.8 °F 86.1 °F 55.4 °F 33% 29.89 in - SW 5.8 mph - N/A   Clear
3:00 PM 87.8 °F 85.7 °F 53.6 °F 31% 29.89 in - NW 4.6 mph - N/A   Clear
4:00 PM 87.8 °F - 51.8 °F 29% 29.89 in - WNW 5.8 mph - N/A   Clear
5:00 PM 86.0 °F - 51.8 °F 31% 29.89 in - NNW 5.8 mph - N/A   Clear
6:00 PM 80.6 °F - 50.0 °F 34% 29.92 in - Calm Calm - N/A   Clear
7:00 PM 77.0 °F - 48.2 °F 36% 29.95 in - North 4.6 mph - N/A   Clear
8:00 PM 75 °F - 47 °F 26% 29.94 in 6 mi North 4.6 mph - -  
8:00 PM 75.2 °F - 46.4 °F 36% 29.95 in - North 4.6 mph - N/A   Clear
9:00 PM 73.4 °F - 44.6 °F 36% 29.98 in - North 5.8 mph - N/A   Clear
10:00 PM 71.6 °F - 42.8 °F 35% 29.98 in - North 6.9 mph - N/A   Clear
11:00 PM 69.8 °F - 41.0 °F 35% 29.98 in - North 9.2 mph - N/A   Clear